Time,TemperatureF,DewpointF,PressureIn,WindDirection,WindDirectionDegrees,WindSpeedMPH,WindSpeedGustMPH,Humidity,HourlyPrecipIn,Conditions,Clouds,dailyrainin,SolarRadiationWatts/m^2,SoftwareType,DateUTC
2013-05-04 00:01:00,44.9,43.0,29.97,NE,49,4.0,5.0,93,0.00,,,0.00,0,Wunderground v.1.15,2013-05-04 05:01:00,
2013-05-04 00:11:00,45.0,43.1,29.97,NE,40,3.0,3.0,93,0.00,,,0.00,0,Wunderground v.1.15,2013-05-04 05:11:00,
2013-05-04 00:16:00,45.0,43.4,29.97,NE,52,3.0,3.0,94,0.00,,,0.00,0,Wunderground v.1.15,2013-05-04 05:16:00,
2013-05-04 00:21:00,45.1,43.5,29.97,NE,43,3.0,4.0,94,0.00,,,0.00,0,Wunderground v.1.15,2013-05-04 05:21:00,
2013-05-04 00:31:00,45.3,43.7,29.97,ENE,59,4.0,5.0,94,0.00,,,0.00,0,Wunderground v.1.15,2013-05-04 05:31:00,
2013-05-04 00:36:00,45.4,43.8,29.97,NE,43,4.0,5.0,94,0.00,,,0.00,0,Wunderground v.1.15,2013-05-04 05:36:00,
2013-05-04 00:41:00,45.5,43.9,29.97,NE,43,4.0,4.0,94,0.00,,,0.00,0,Wunderground v.1.15,2013-05-04 05:41:00,
2013-05-04 00:51:00,45.6,44.0,29.97,ENE,75,4.0,4.0,94,0.00,,,0.00,0,Wunderground v.1.15,2013-05-04 05:51:00,
2013-05-04 00:56:00,45.6,44.0,29.96,ENE,64,4.0,7.0,94,0.00,,,0.00,0,Wunderground v.1.15,2013-05-04 05:56:00,
2013-05-04 01:01:00,45.6,44.0,29.97,ENE,73,5.0,5.0,94,0.00,,,0.00,0,Wunderground v.1.15,2013-05-04 06:01:00,
2013-05-04 01:11:00,45.6,44.0,29.96,ENE,65,5.0,5.0,94,0.00,,,0.00,0,Wunderground v.1.15,2013-05-04 06:11:00,
2013-05-04 01:16:00,45.7,44.1,29.96,ENE,60,5.0,5.0,94,0.00,,,0.00,0,Wunderground v.1.15,2013-05-04 06:16:00,
2013-05-04 01:26:00,45.6,44.0,29.97,ENE,67,3.0,5.0,94,0.00,,,0.00,0,Wunderground v.1.15,2013-05-04 06:26:00,
2013-05-04 01:31:00,45.6,44.0,29.97,NE,53,2.0,2.0,94,0.00,,,0.00,0,Wunderground v.1.15,2013-05-04 06:31:00,
2013-05-04 01:36:00,45.6,44.0,29.98,NE,54,0.0,2.0,94,0.00,,,0.00,0,Wunderground v.1.15,2013-05-04 06:36:00,
2013-05-04 01:46:00,45.6,44.0,29.98,NE,53,0.0,0.0,94,0.00,,,0.00,0,Wunderground v.1.15,2013-05-04 06:46:00,
2013-05-04 01:51:00,45.6,44.0,29.97,NE,37,0.0,0.0,94,0.00,,,0.00,0,Wunderground v.1.15,2013-05-04 06:51:00,
2013-05-04 01:56:00,45.6,44.0,29.97,NE,42,0.0,0.0,94,0.00,,,0.00,0,Wunderground v.1.15,2013-05-04 06:56:00,
2013-05-04 02:06:00,45.5,43.9,29.97,NE,41,0.0,3.0,94,0.00,,,0.00,0,Wunderground v.1.15,2013-05-04 07:06:00,
2013-05-04 02:16:00,45.4,43.8,29.97,NE,45,2.0,2.0,94,0.00,,,0.00,0,Wunderground v.1.15,2013-05-04 07:16:00,
2013-05-04 02:21:00,45.4,43.8,29.97,NNE,33,2.0,2.0,94,0.00,,,0.00,0,Wunderground v.1.15,2013-05-04 07:21:00,
2013-05-04 02:26:00,45.4,43.8,29.97,NE,35,2.0,2.0,94,0.00,,,0.00,0,Wunderground v.1.15,2013-05-04 07:26:00,
2013-05-04 02:36:00,45.4,43.5,29.96,NNE,33,0.0,1.0,93,0.00,,,0.00,0,Wunderground v.1.15,2013-05-04 07:36:00,
2013-05-04 02:41:00,45.4,43.5,29.96,NE,35,1.0,3.0,93,0.00,,,0.00,0,Wunderground v.1.15,2013-05-04 07:41:00,
2013-05-04 02:46:00,45.3,43.4,29.96,NE,43,2.0,3.0,93,0.00,,,0.00,0,Wunderground v.1.15,2013-05-04 07:46:00,
2013-05-04 02:56:00,45.3,43.4,29.96,NE,44,2.0,3.0,93,0.00,,,0.00,0,Wunderground v.1.15,2013-05-04 07:56:00,
2013-05-04 03:01:00,45.4,43.5,29.96,NE,35,2.0,2.0,93,0.00,,,0.00,0,Wunderground v.1.15,2013-05-04 08:01:00,
2013-05-04 03:06:00,45.4,43.5,29.96,NE,41,2.0,2.0,93,0.00,,,0.00,0,Wunderground v.1.15,2013-05-04 08:06:00,
2013-05-04 03:16:00,45.4,43.5,29.96,NE,52,2.0,4.0,93,0.00,,,0.00,0,Wunderground v.1.15,2013-05-04 08:16:00,
2013-05-04 03:26:00,45.5,43.6,29.96,NNE,31,2.0,3.0,93,0.00,,,0.00,0,Wunderground v.1.15,2013-05-04 08:26:00,
2013-05-04 03:31:00,45.5,43.6,29.96,NE,36,1.0,2.0,93,0.00,,,0.00,0,Wunderground v.1.15,2013-05-04 08:31:00,
2013-05-04 03:36:00,45.5,43.6,29.96,NNE,33,2.0,2.0,93,0.00,,,0.00,0,Wunderground v.1.15,2013-05-04 08:36:00,
2013-05-04 03:46:00,45.6,43.7,29.96,NE,34,2.0,2.0,93,0.00,,,0.00,0,Wunderground v.1.15,2013-05-04 08:46:00,
2013-05-04 03:51:00,45.7,43.8,29.97,NNE,31,1.0,1.0,93,0.00,,,0.00,0,Wunderground v.1.15,2013-05-04 08:51:00,
2013-05-04 04:01:00,45.7,43.5,29.97,NE,41,2.0,2.0,92,0.00,,,0.00,0,Wunderground v.1.15,2013-05-04 09:01:00,
2013-05-04 04:06:00,45.7,43.5,29.97,NE,41,2.0,2.0,92,0.00,,,0.00,0,Wunderground v.1.15,2013-05-04 09:06:00,
2013-05-04 04:16:00,45.7,43.5,29.97,NNE,25,1.0,2.0,92,0.00,,,0.00,0,Wunderground v.1.15,2013-05-04 09:16:00,
2013-05-04 04:21:00,45.7,43.5,29.96,NNE,27,0.0,0.0,92,0.00,,,0.00,0,Wunderground v.1.15,2013-05-04 09:21:00,
2013-05-04 04:31:00,45.7,43.5,29.96,NE,52,1.0,2.0,92,0.00,,,0.00,0,Wunderground v.1.15,2013-05-04 09:31:00,
2013-05-04 04:36:00,45.7,43.5,29.96,NE,48,3.0,3.0,92,0.00,,,0.00,0,Wunderground v.1.15,2013-05-04 09:36:00,
2013-05-04 04:41:00,45.8,43.9,29.96,ENE,62,3.0,5.0,93,0.00,,,0.00,0,Wunderground v.1.15,2013-05-04 09:41:00,
2013-05-04 04:51:00,45.9,43.7,29.96,NE,37,3.0,5.0,92,0.00,,,0.00,0,Wunderground v.1.15,2013-05-04 09:51:00,
2013-05-04 04:56:00,45.9,43.7,29.96,NE,54,3.0,5.0,92,0.00,,,0.00,0,Wunderground v.1.15,2013-05-04 09:56:00,
2013-05-04 05:06:00,46.1,43.9,29.97,ENE,70,2.0,3.0,92,0.00,,,0.00,0,Wunderground v.1.15,2013-05-04 10:06:00,
2013-05-04 05:11:00,46.2,44.0,29.97,NE,49,2.0,2.0,92,0.00,,,0.00,0,Wunderground v.1.15,2013-05-04 10:11:00,
2013-05-04 05:21:00,46.3,43.8,29.97,NE,56,1.0,1.0,91,0.00,,,0.00,0,Wunderground v.1.15,2013-05-04 10:21:00,
2013-05-04 05:26:00,46.3,43.8,29.98,NE,56,1.0,1.0,91,0.00,,,0.00,0,Wunderground v.1.15,2013-05-04 10:26:00,
2013-05-04 05:31:00,46.3,43.8,29.97,ENE,58,0.0,0.0,91,0.00,,,0.00,0,Wunderground v.1.15,2013-05-04 10:31:00,
2013-05-04 05:41:00,46.2,43.7,29.97,NNE,29,2.0,3.0,91,0.00,,,0.00,0,Wunderground v.1.15,2013-05-04 10:41:00,
2013-05-04 05:51:00,46.1,43.6,29.98,NNE,30,1.0,3.0,91,0.00,,,0.00,0,Wunderground v.1.15,2013-05-04 10:51:00,
2013-05-04 05:56:00,46.1,43.6,29.98,NNE,33,1.0,3.0,91,0.00,,,0.00,7,Wunderground v.1.15,2013-05-04 10:56:00,
2013-05-04 06:01:00,46.1,43.3,29.98,NE,41,0.0,0.0,90,0.00,,,0.00,11,Wunderground v.1.15,2013-05-04 11:01:00,
2013-05-04 06:11:00,46.1,43.3,29.98,NE,41,1.0,1.0,90,0.00,,,0.00,18,Wunderground v.1.15,2013-05-04 11:11:00,
2013-05-04 06:21:00,46.2,43.4,29.98,NNE,31,0.0,0.0,90,0.00,,,0.00,28,Wunderground v.1.15,2013-05-04 11:21:00,
2013-05-04 06:26:00,46.3,43.5,29.98,NNE,30,0.0,0.0,90,0.00,,,0.00,35,Wunderground v.1.15,2013-05-04 11:26:00,
2013-05-04 06:36:00,46.7,43.9,29.98,NNE,29,0.0,0.0,90,0.00,,,0.00,39,Wunderground v.1.15,2013-05-04 11:36:00,
2013-05-04 06:41:00,46.8,44.0,29.98,NNE,29,0.0,0.0,90,0.00,,,0.00,39,Wunderground v.1.15,2013-05-04 11:41:00,
2013-05-04 06:51:00,47.1,44.0,29.98,NNE,33,1.0,2.0,89,0.00,,,0.00,42,Wunderground v.1.15,2013-05-04 11:51:00,
2013-05-04 06:56:00,47.3,43.9,29.98,NE,35,2.0,2.0,88,0.00,,,0.00,49,Wunderground v.1.15,2013-05-04 11:56:00,
2013-05-04 07:01:00,47.5,44.1,29.98,NE,48,2.0,3.0,88,0.00,,,0.00,63,Wunderground v.1.15,2013-05-04 12:01:00,
2013-05-04 07:11:00,47.8,44.1,29.99,NE,48,2.0,2.0,87,0.00,,,0.00,70,Wunderground v.1.15,2013-05-04 12:11:00,
2013-05-04 07:21:00,48.2,44.2,29.99,NE,47,1.0,1.0,86,0.00,,,0.00,84,Wunderground v.1.15,2013-05-04 12:21:00,
2013-05-04 07:26:00,48.4,44.4,29.99,NE,49,1.0,1.0,86,0.00,,,0.00,98,Wunderground v.1.15,2013-05-04 12:26:00,
2013-05-04 07:31:00,48.7,44.4,29.99,NE,48,0.0,0.0,85,0.00,,,0.00,98,Wunderground v.1.15,2013-05-04 12:31:00,
2013-05-04 07:36:00,49.0,44.7,29.99,NE,45,0.0,0.0,85,0.00,,,0.00,88,Wunderground v.1.15,2013-05-04 12:36:00,
2013-05-04 07:46:00,49.6,44.6,29.99,ENE,76,0.0,0.0,83,0.00,,,0.00,86,Wunderground v.1.15,2013-05-04 12:46:00,
2013-05-04 07:51:00,49.9,44.9,30.00,East,91,0.0,0.0,83,0.00,,,0.00,84,Wunderground v.1.15,2013-05-04 12:51:00,
2013-05-04 07:56:00,50.2,45.2,30.00,East,89,0.0,0.0,83,0.00,,,0.00,83,Wunderground v.1.15,2013-05-04 12:56:00,
2013-05-04 08:06:00,50.8,45.5,30.00,East,87,0.0,0.0,82,0.00,,,0.00,190,Wunderground v.1.15,2013-05-04 13:06:00,
2013-05-04 08:11:00,51.3,45.7,30.00,East,83,0.0,0.0,81,0.00,,,0.00,274,Wunderground v.1.15,2013-05-04 13:11:00,
2013-05-04 08:21:00,52.5,45.8,30.00,ENE,63,1.0,2.0,78,0.00,,,0.00,197,Wunderground v.1.15,2013-05-04 13:21:00,
2013-05-04 08:31:00,53.4,46.0,30.00,ENE,73,3.0,3.0,76,0.00,,,0.00,302,Wunderground v.1.15,2013-05-04 13:31:00,
2013-05-04 08:36:00,54.0,46.3,30.00,East,81,3.0,6.0,75,0.00,,,0.00,455,Wunderground v.1.15,2013-05-04 13:36:00,
2013-05-04 08:41:00,54.9,46.4,30.00,East,82,3.0,5.0,73,0.00,,,0.00,406,Wunderground v.1.15,2013-05-04 13:41:00,
2013-05-04 08:46:00,55.9,46.6,30.00,ENE,75,3.0,5.0,71,0.00,,,0.00,527,Wunderground v.1.15,2013-05-04 13:46:00,
2013-05-04 08:51:00,56.7,47.0,30.00,ENE,61,3.0,3.0,70,0.00,,,0.00,306,Wunderground v.1.15,2013-05-04 13:51:00,
2013-05-04 08:56:00,57.6,46.7,30.00,East,87,3.0,3.0,67,0.00,,,0.00,299,Wunderground v.1.15,2013-05-04 13:56:00,
2013-05-04 09:01:00,58.6,46.0,30.00,East,90,3.0,3.0,63,0.00,,,0.00,281,Wunderground v.1.15,2013-05-04 14:01:00,
2013-05-04 09:11:00,60.2,45.8,30.00,ESE,109,3.0,4.0,59,0.00,,,0.00,394,Wunderground v.1.15,2013-05-04 14:11:00,
2013-05-04 09:16:00,60.7,45.4,29.99,SE,124,2.0,4.0,57,0.00,,,0.00,325,Wunderground v.1.15,2013-05-04 14:16:00,
2013-05-04 09:26:00,61.9,45.5,30.00,North,359,1.0,2.0,55,0.00,,,0.00,278,Wunderground v.1.15,2013-05-04 14:26:00,
2013-05-04 09:31:00,62.3,44.9,30.00,North,359,1.0,4.0,53,0.00,,,0.00,323,Wunderground v.1.15,2013-05-04 14:31:00,
2013-05-04 09:41:00,62.7,45.3,30.00,SSE,157,2.0,2.0,53,0.00,,,0.00,292,Wunderground v.1.15,2013-05-04 14:41:00,
2013-05-04 09:46:00,62.8,44.9,30.00,North,359,3.0,5.0,52,0.00,,,0.00,322,Wunderground v.1.15,2013-05-04 14:46:00,
2013-05-04 09:51:00,62.8,44.9,30.00,North,359,4.0,4.0,52,0.00,,,0.00,334,Wunderground v.1.15,2013-05-04 14:51:00,
2013-05-04 10:01:00,63.0,45.1,30.00,SSE,156,3.0,3.0,52,0.00,,,0.00,346,Wunderground v.1.15,2013-05-04 15:01:00,
2013-05-04 10:06:00,63.1,45.2,30.01,SSE,159,4.0,6.0,52,0.00,,,0.00,338,Wunderground v.1.15,2013-05-04 15:06:00,
2013-05-04 10:16:00,63.4,45.5,30.00,ESE,120,4.0,4.0,52,0.00,,,0.00,360,Wunderground v.1.15,2013-05-04 15:16:00,
2013-05-04 10:21:00,63.6,45.6,30.00,ENE,77,3.0,4.0,52,0.00,,,0.00,483,Wunderground v.1.15,2013-05-04 15:21:00,
2013-05-04 10:31:00,63.5,45.6,30.00,ESE,114,3.0,3.0,52,0.00,,,0.00,664,Wunderground v.1.15,2013-05-04 15:31:00,
2013-05-04 10:36:00,64.0,46.5,30.00,ENE,77,1.0,3.0,53,0.00,,,0.00,608,Wunderground v.1.15,2013-05-04 15:36:00,
2013-05-04 10:41:00,64.3,45.8,30.00,East,85,0.0,5.0,51,0.00,,,0.00,663,Wunderground v.1.15,2013-05-04 15:41:00,
2013-05-04 10:51:00,64.9,45.8,30.00,SE,128,2.0,3.0,50,0.00,,,0.00,613,Wunderground v.1.15,2013-05-04 15:51:00,
2013-05-04 10:56:00,64.9,45.8,30.00,East,94,2.0,3.0,50,0.00,,,0.00,531,Wunderground v.1.15,2013-05-04 15:56:00,
2013-05-04 11:01:00,65.2,46.6,30.00,ESE,121,2.0,2.0,51,0.00,,,0.00,506,Wunderground v.1.15,2013-05-04 16:01:00,
2013-05-04 11:11:00,65.5,45.8,30.00,SE,141,2.0,2.0,49,0.00,,,0.00,592,Wunderground v.1.15,2013-05-04 16:11:00,
2013-05-04 11:21:00,65.7,46.0,30.00,South,169,3.0,4.0,49,0.00,,,0.00,821,Wunderground v.1.15,2013-05-04 16:21:00,
2013-05-04 11:26:00,66.1,45.8,30.00,East,83,3.0,4.0,48,0.00,,,0.00,649,Wunderground v.1.15,2013-05-04 16:26:00,
2013-05-04 11:31:00,66.0,45.7,30.00,SSE,147,4.0,4.0,48,0.00,,,0.00,603,Wunderground v.1.15,2013-05-04 16:31:00,
2013-05-04 11:41:00,66.2,46.5,30.00,East,87,3.0,3.0,49,0.00,,,0.00,679,Wunderground v.1.15,2013-05-04 16:41:00,
2013-05-04 11:46:00,66.7,46.9,30.00,ESE,106,3.0,4.0,49,0.00,,,0.00,617,Wunderground v.1.15,2013-05-04 16:46:00,
2013-05-04 11:56:00,67.0,46.7,30.00,SE,136,3.0,3.0,48,0.00,,,0.00,594,Wunderground v.1.15,2013-05-04 16:56:00,
2013-05-04 12:06:00,67.0,47.2,29.99,ESE,122,3.0,3.0,49,0.00,,,0.00,591,Wunderground v.1.15,2013-05-04 17:06:00,
2013-05-04 12:16:00,67.4,47.0,29.99,SE,133,1.0,5.0,48,0.00,,,0.00,684,Wunderground v.1.15,2013-05-04 17:16:00,
2013-05-04 12:21:00,67.6,46.6,29.99,SSE,166,2.0,3.0,47,0.00,,,0.00,563,Wunderground v.1.15,2013-05-04 17:21:00,
2013-05-04 12:31:00,66.8,47.0,29.99,ESE,107,4.0,4.0,49,0.00,,,0.00,526,Wunderground v.1.15,2013-05-04 17:31:00,
2013-05-04 12:36:00,66.9,47.1,29.99,East,85,4.0,5.0,49,0.00,,,0.00,626,Wunderground v.1.15,2013-05-04 17:36:00,
2013-05-04 12:41:00,67.0,47.2,29.99,East,83,4.0,6.0,49,0.00,,,0.00,540,Wunderground v.1.15,2013-05-04 17:41:00,
2013-05-04 12:51:00,67.4,47.0,29.99,East,91,5.0,5.0,48,0.00,,,0.00,592,Wunderground v.1.15,2013-05-04 17:51:00,
2013-05-04 12:56:00,67.8,47.4,29.99,ESE,119,4.0,5.0,48,0.00,,,0.00,763,Wunderground v.1.15,2013-05-04 17:56:00,
2013-05-04 13:06:00,67.7,47.3,29.99,East,98,6.0,9.0,48,0.00,,,0.00,793,Wunderground v.1.15,2013-05-04 18:06:00,
2013-05-04 13:16:00,67.6,47.2,29.98,NE,50,6.0,6.0,48,0.00,,,0.00,907,Wunderground v.1.15,2013-05-04 18:16:00,
2013-05-04 13:21:00,67.5,47.1,29.98,ENE,71,7.0,11.0,48,0.00,,,0.00,977,Wunderground v.1.15,2013-05-04 18:21:00,
2013-05-04 13:31:00,67.6,47.2,29.98,East,85,7.0,7.0,48,0.00,,,0.00,891,Wunderground v.1.15,2013-05-04 18:31:00,
2013-05-04 13:36:00,68.0,47.6,29.98,East,79,6.0,13.0,48,0.00,,,0.00,1042,Wunderground v.1.15,2013-05-04 18:36:00,
2013-05-04 13:41:00,67.4,47.0,29.98,East,97,6.0,8.0,48,0.00,,,0.00,585,Wunderground v.1.15,2013-05-04 18:41:00,
2013-05-04 13:51:00,66.1,46.9,29.98,East,99,7.0,7.0,50,0.00,,,0.00,466,Wunderground v.1.15,2013-05-04 18:51:00,
2013-05-04 13:56:00,66.0,46.8,29.98,SE,137,6.0,8.0,50,0.00,,,0.00,446,Wunderground v.1.15,2013-05-04 18:56:00,
2013-05-04 14:06:00,66.1,47.4,29.98,East,83,4.0,5.0,51,0.00,,,0.00,538,Wunderground v.1.15,2013-05-04 19:06:00,
2013-05-04 14:16:00,66.1,47.4,29.98,East,79,5.0,7.0,51,0.00,,,0.00,763,Wunderground v.1.15,2013-05-04 19:16:00,
2013-05-04 14:21:00,66.5,47.3,29.97,ESE,110,6.0,8.0,50,0.00,,,0.00,696,Wunderground v.1.15,2013-05-04 19:21:00,
2013-05-04 14:31:00,66.9,47.6,29.97,ENE,78,6.0,6.0,50,0.00,,,0.00,459,Wunderground v.1.15,2013-05-04 19:31:00,
2013-05-04 14:36:00,67.7,47.8,29.97,East,91,4.0,7.0,49,0.00,,,0.00,459,Wunderground v.1.15,2013-05-04 19:36:00,
2013-05-04 14:41:00,68.1,47.7,29.97,East,95,4.0,7.0,48,0.00,,,0.00,519,Wunderground v.1.15,2013-05-04 19:41:00,
2013-05-04 14:51:00,67.2,46.8,29.97,ESE,102,7.0,7.0,48,0.00,,,0.00,392,Wunderground v.1.15,2013-05-04 19:51:00,
2013-05-04 14:56:00,66.7,46.9,29.97,ESE,107,7.0,7.0,49,0.00,,,0.00,478,Wunderground v.1.15,2013-05-04 19:56:00,
2013-05-04 15:01:00,67.2,47.4,29.97,East,99,6.0,9.0,49,0.00,,,0.00,610,Wunderground v.1.15,2013-05-04 20:01:00,
2013-05-04 15:11:00,66.8,47.0,29.97,East,97,7.0,7.0,49,0.00,,,0.00,408,Wunderground v.1.15,2013-05-04 20:11:00,
2013-05-04 15:16:00,66.5,46.7,29.97,ENE,78,8.0,11.0,49,0.00,,,0.00,403,Wunderground v.1.15,2013-05-04 20:16:00,
2013-05-04 15:26:00,66.2,47.0,29.96,East,95,9.0,13.0,50,0.00,,,0.00,591,Wunderground v.1.15,2013-05-04 20:26:00,
2013-05-04 15:31:00,66.4,46.7,29.96,ENE,72,9.0,9.0,49,0.00,,,0.00,485,Wunderground v.1.15,2013-05-04 20:31:00,
2013-05-04 15:36:00,66.8,46.5,29.97,ENE,65,8.0,9.0,48,0.00,,,0.00,513,Wunderground v.1.15,2013-05-04 20:36:00,
2013-05-04 15:46:00,67.0,46.7,29.96,East,80,8.0,11.0,48,0.00,,,0.00,403,Wunderground v.1.15,2013-05-04 20:46:00,
2013-05-04 15:51:00,66.8,46.5,29.96,ENE,70,8.0,8.0,48,0.00,,,0.00,506,Wunderground v.1.15,2013-05-04 20:51:00,
2013-05-04 16:01:00,67.2,46.8,29.96,ENE,67,8.0,8.0,48,0.00,,,0.00,378,Wunderground v.1.15,2013-05-04 21:01:00,
2013-05-04 16:06:00,67.1,46.7,29.96,East,84,8.0,13.0,48,0.00,,,0.00,364,Wunderground v.1.15,2013-05-04 21:06:00,
2013-05-04 16:16:00,66.7,46.4,29.96,East,89,7.0,9.0,48,0.00,,,0.00,325,Wunderground v.1.15,2013-05-04 21:16:00,
2013-05-04 16:26:00,66.2,45.9,29.96,ENE,76,8.0,8.0,48,0.00,,,0.00,239,Wunderground v.1.15,2013-05-04 21:26:00,
2013-05-04 16:31:00,65.9,46.7,29.96,ENE,63,7.0,7.0,50,0.00,,,0.00,244,Wunderground v.1.15,2013-05-04 21:31:00,
2013-05-04 16:41:00,65.7,46.5,29.96,East,82,4.0,4.0,50,0.00,,,0.00,264,Wunderground v.1.15,2013-05-04 21:41:00,
2013-05-04 16:46:00,65.8,46.6,29.96,East,83,2.0,4.0,50,0.00,,,0.00,237,Wunderground v.1.15,2013-05-04 21:46:00,
2013-05-04 16:51:00,65.7,46.5,29.96,East,87,3.0,9.0,50,0.00,,,0.00,250,Wunderground v.1.15,2013-05-04 21:51:00,
2013-05-04 17:01:00,65.9,46.7,29.97,ESE,102,4.0,5.0,50,0.00,,,0.00,501,Wunderground v.1.15,2013-05-04 22:01:00,
2013-05-04 17:06:00,65.9,46.7,29.96,ENE,67,5.0,9.0,50,0.00,,,0.00,457,Wunderground v.1.15,2013-05-04 22:06:00,
2013-05-04 17:16:00,65.5,46.4,29.97,NE,47,5.0,8.0,50,0.00,,,0.00,378,Wunderground v.1.15,2013-05-04 22:16:00,
2013-05-04 17:21:00,65.5,46.4,29.96,NNE,28,6.0,6.0,50,0.00,,,0.00,394,Wunderground v.1.15,2013-05-04 22:21:00,
2013-05-04 17:31:00,65.5,45.8,29.96,East,83,5.0,6.0,49,0.00,,,0.00,404,Wunderground v.1.15,2013-05-04 22:31:00,
2013-05-04 17:41:00,65.4,45.7,29.96,NE,42,5.0,5.0,49,0.00,,,0.00,341,Wunderground v.1.15,2013-05-04 22:41:00,
2013-05-04 17:46:00,65.2,45.5,29.97,ENE,58,5.0,8.0,49,0.00,,,0.00,315,Wunderground v.1.15,2013-05-04 22:46:00,
2013-05-04 17:51:00,65.2,45.5,29.97,ENE,69,5.0,7.0,49,0.00,,,0.00,279,Wunderground v.1.15,2013-05-04 22:51:00,
2013-05-04 18:01:00,65.2,45.0,29.96,East,92,4.0,4.0,48,0.00,,,0.00,207,Wunderground v.1.15,2013-05-04 23:01:00,
2013-05-04 18:06:00,65.3,44.5,29.97,East,90,3.0,4.0,47,0.00,,,0.00,181,Wunderground v.1.15,2013-05-04 23:06:00,
2013-05-04 18:16:00,65.1,44.9,29.97,ENE,66,3.0,5.0,48,0.00,,,0.00,185,Wunderground v.1.15,2013-05-04 23:16:00,
2013-05-04 18:21:00,64.8,44.6,29.97,ENE,66,3.0,5.0,48,0.00,,,0.00,127,Wunderground v.1.15,2013-05-04 23:21:00,
2013-05-04 18:31:00,63.7,44.2,29.97,NE,54,2.0,6.0,49,0.00,,,0.00,102,Wunderground v.1.15,2013-05-04 23:31:00,
2013-05-04 18:41:00,62.0,44.2,29.97,ENE,70,3.0,8.0,52,0.00,,,0.00,69,Wunderground v.1.15,2013-05-04 23:41:00,
2013-05-04 18:46:00,61.2,43.9,29.97,ENE,66,3.0,8.0,53,0.00,,,0.00,60,Wunderground v.1.15,2013-05-04 23:46:00,
2013-05-04 18:51:00,60.4,43.7,29.98,NE,46,3.0,3.0,54,0.00,,,0.00,53,Wunderground v.1.15,2013-05-04 23:51:00,
2013-05-04 19:01:00,58.3,43.6,29.98,ENE,58,5.0,5.0,58,0.00,,,0.00,40,Wunderground v.1.15,2013-05-05 00:01:00,
2013-05-04 19:06:00,57.2,43.0,29.98,NE,53,5.0,5.0,59,0.00,,,0.00,35,Wunderground v.1.15,2013-05-05 00:06:00,
2013-05-04 19:16:00,55.9,43.1,29.98,East,79,6.0,7.0,62,0.00,,,0.00,25,Wunderground v.1.15,2013-05-05 00:16:00,
2013-05-04 19:21:00,55.6,43.2,29.99,ENE,66,4.0,4.0,63,0.00,,,0.00,21,Wunderground v.1.15,2013-05-05 00:21:00,
2013-05-04 19:26:00,55.3,43.3,29.99,NE,39,2.0,4.0,64,0.00,,,0.00,18,Wunderground v.1.15,2013-05-05 00:26:00,
2013-05-04 19:31:00,55.1,43.5,29.99,NNE,31,1.0,2.0,65,0.00,,,0.00,12,Wunderground v.1.15,2013-05-05 00:31:00,
2013-05-04 19:41:00,54.0,42.9,29.99,ENE,62,5.0,5.0,66,0.00,,,0.00,9,Wunderground v.1.15,2013-05-05 00:41:00,
2013-05-04 19:46:00,53.8,43.1,30.00,NE,53,4.0,6.0,67,0.00,,,0.00,5,Wunderground v.1.15,2013-05-05 00:46:00,
2013-05-04 19:56:00,53.3,43.0,30.00,NE,48,4.0,6.0,68,0.00,,,0.00,0,Wunderground v.1.15,2013-05-05 00:56:00,
2013-05-04 20:01:00,53.0,42.7,30.00,NE,48,4.0,4.0,68,0.00,,,0.00,0,Wunderground v.1.15,2013-05-05 01:01:00,
2013-05-04 20:11:00,52.7,42.8,30.01,East,85,1.0,6.0,69,0.00,,,0.00,0,Wunderground v.1.15,2013-05-05 01:11:00,
2013-05-04 20:21:00,52.3,42.4,30.02,NE,49,2.0,2.0,69,0.00,,,0.00,0,Wunderground v.1.15,2013-05-05 01:21:00,
2013-05-04 20:26:00,52.2,42.7,30.02,NE,45,0.0,2.0,70,0.00,,,0.00,0,Wunderground v.1.15,2013-05-05 01:26:00,
2013-05-04 20:31:00,52.1,42.2,30.02,NNE,31,0.0,0.0,69,0.00,,,0.00,0,Wunderground v.1.15,2013-05-05 01:31:00,
2013-05-04 20:41:00,51.9,42.0,30.03,ENE,64,1.0,1.0,69,0.00,,,0.00,0,Wunderground v.1.15,2013-05-05 01:41:00,
2013-05-04 20:46:00,51.9,42.0,30.03,ENE,62,0.0,1.0,69,0.00,,,0.00,0,Wunderground v.1.15,2013-05-05 01:46:00,
2013-05-04 20:51:00,51.8,41.9,30.03,ENE,64,0.0,0.0,69,0.00,,,0.00,0,Wunderground v.1.15,2013-05-05 01:51:00,
2013-05-04 21:01:00,51.7,41.9,30.03,ENE,62,0.0,0.0,69,0.00,,,0.00,0,Wunderground v.1.15,2013-05-05 02:01:00,
2013-05-04 21:06:00,51.7,41.9,30.03,ENE,63,0.0,0.0,69,0.00,,,0.00,0,Wunderground v.1.15,2013-05-05 02:06:00,
2013-05-04 21:16:00,51.9,42.0,30.03,NE,54,0.0,0.0,69,0.00,,,0.00,0,Wunderground v.1.15,2013-05-05 02:16:00,
2013-05-04 21:21:00,51.8,41.9,30.03,NE,54,0.0,0.0,69,0.00,,,0.00,0,Wunderground v.1.15,2013-05-05 02:21:00,
2013-05-04 21:31:00,51.7,41.9,30.04,NE,55,0.0,0.0,69,0.00,,,0.00,0,Wunderground v.1.15,2013-05-05 02:31:00,
2013-05-04 21:41:00,51.5,42.0,30.04,NE,54,0.0,0.0,70,0.00,,,0.00,0,Wunderground v.1.15,2013-05-05 02:41:00,
2013-05-04 21:46:00,51.4,41.6,30.04,NE,52,0.0,0.0,69,0.00,,,0.00,0,Wunderground v.1.15,2013-05-05 02:46:00,
2013-05-04 21:51:00,51.4,41.6,30.04,NE,53,0.0,0.0,69,0.00,,,0.00,0,Wunderground v.1.15,2013-05-05 02:51:00,
2013-05-04 21:56:00,51.4,41.6,30.04,NE,54,0.0,0.0,69,0.00,,,0.00,0,Wunderground v.1.15,2013-05-05 02:56:00,
2013-05-04 22:01:00,51.3,41.5,30.04,NE,50,0.0,0.0,69,0.00,,,0.00,0,Wunderground v.1.15,2013-05-05 03:01:00,
2013-05-04 22:11:00,51.2,41.4,30.03,NE,56,0.0,0.0,69,0.00,,,0.00,0,Wunderground v.1.15,2013-05-05 03:11:00,
2013-05-04 22:21:00,51.0,41.6,30.03,NE,43,0.0,0.0,70,0.00,,,0.00,0,Wunderground v.1.15,2013-05-05 03:21:00,
2013-05-04 22:26:00,50.9,41.8,30.03,North,4,0.0,0.0,71,0.00,,,0.00,0,Wunderground v.1.15,2013-05-05 03:26:00,
2013-05-04 22:31:00,50.9,41.8,30.03,North,4,0.0,0.0,71,0.00,,,0.00,0,Wunderground v.1.15,2013-05-05 03:31:00,
2013-05-04 22:41:00,50.8,41.4,30.03,North,359,1.0,2.0,70,0.00,,,0.00,0,Wunderground v.1.15,2013-05-05 03:41:00,
2013-05-04 22:46:00,50.8,41.4,30.03,NNW,347,2.0,2.0,70,0.00,,,0.00,0,Wunderground v.1.15,2013-05-05 03:46:00,
2013-05-04 22:56:00,50.7,41.3,30.03,North,359,0.0,1.0,70,0.00,,,0.00,0,Wunderground v.1.15,2013-05-05 03:56:00,
2013-05-04 23:01:00,50.6,41.5,30.02,North,359,0.0,0.0,71,0.00,,,0.00,0,Wunderground v.1.15,2013-05-05 04:01:00,
2013-05-04 23:06:00,50.6,41.5,30.02,NW,314,1.0,2.0,71,0.00,,,0.00,0,Wunderground v.1.15,2013-05-05 04:06:00,
2013-05-04 23:11:00,50.6,41.5,30.03,North,359,1.0,1.0,71,0.00,,,0.00,0,Wunderground v.1.15,2013-05-05 04:11:00,
2013-05-04 23:16:00,50.5,41.4,30.03,NW,314,1.0,1.0,71,0.00,,,0.00,0,Wunderground v.1.15,2013-05-05 04:16:00,
2013-05-04 23:21:00,50.5,41.8,30.03,North,359,0.0,0.0,72,0.00,,,0.00,0,Wunderground v.1.15,2013-05-05 04:21:00,
2013-05-04 23:26:00,50.4,41.7,30.03,North,359,1.0,1.0,72,0.00,,,0.00,0,Wunderground v.1.15,2013-05-05 04:26:00,
2013-05-04 23:31:00,50.4,41.7,30.03,NW,315,1.0,1.0,72,0.00,,,0.00,0,Wunderground v.1.15,2013-05-05 04:31:00,
2013-05-04 23:36:00,50.3,41.6,30.02,North,10,1.0,1.0,72,0.00,,,0.00,0,Wunderground v.1.15,2013-05-05 04:36:00,
2013-05-04 23:41:00,50.2,41.5,30.03,North,10,1.0,1.0,72,0.00,,,0.00,0,Wunderground v.1.15,2013-05-05 04:41:00,
2013-05-04 23:46:00,50.2,41.5,30.02,North,8,2.0,2.0,72,0.00,,,0.00,0,Wunderground v.1.15,2013-05-05 04:46:00,
2013-05-04 23:51:00,50.1,41.4,30.02,North,8,1.0,1.0,72,0.00,,,0.00,0,Wunderground v.1.15,2013-05-05 04:51:00,
2013-05-04 23:56:00,50.1,41.1,30.02,North,8,2.0,3.0,71,0.00,,,0.00,0,Wunderground v.1.15,2013-05-05 04:56:00,